Regional Weather Roundup
Issued by NWS Spokane, WA

Home | Current Version | Previous Version | Text Only | Print | Product List | Glossary On
Versions: 1 2 3 4 5 6 7 8 9 10 11 12 13 14 15 16 17 18 19 20 21 22 23 24 25 26 27 28 29 30 31 32 33 34 35 36 37 38 39 40 41 42 43 44 45 46 47 48 49 50
478
NZUS01 KOTX 251357
RWROTX

Eastern Washington/Northern Idaho Roundup
National Weather Service, Spokane WA
700 AM PDT SUN JUN 25 2017

Note: "fair" indicated few or no clouds below 12,000 feet with no
significant weather and/or obstructions to visibility.

...Northeast Washington and Northern Idaho Panhandle...

CITY           SKY/WX    TMP DP  RH WIND       PRES   REMARKS
Spokane Intl   SUNNY     65  45  48 NE13      30.13S
Spokane Downto SUNNY     62  48  60 W3        30.13S
Deer Park      SUNNY     63  45  51 MISG      30.14S

...Southeast Washington and southern Idaho Panhandle...

CITY           SKY/WX    TMP DP  RH WIND       PRES   REMARKS
Walla Walla    SUNNY     71  49  45 CALM      30.02F
Pullman/Moscow SUNNY     66  45  46 E13       30.14S
Lowell           N/A     53  49  86 CALM      30.19S

...Columbia Basin...

CITY           SKY/WX    TMP DP  RH WIND       PRES   REMARKS
Ephrata        SUNNY     68  44  42 NE7       30.06S
Moses Lake     SUNNY     64  42  44 N10       30.07S
Pasco          SUNNY     59  51  75 CALM      30.03R
Hermiston      SUNNY     62  48  60 SE3       30.01R
Pendleton      SUNNY     65  46  50 SE5       30.03S

...East Slopes Cascades...

CITY           SKY/WX    TMP DP  RH WIND       PRES   REMARKS
The Dalles     SUNNY     61  48  62 CALM      30.01S
Yakima         SUNNY     63  48  58 W7        30.06S
Ellensburg     SUNNY     59  45  59 CALM      30.09S
Omak           SUNNY     63  45  51 CALM      30.11R
Sunnyside      SUNNY     56  50  79 CALM      30.03S

...Southern British Columbia...

CITY           SKY/WX    TMP DP  RH WIND       PRES   REMARKS

...Western Montana...

CITY           SKY/WX    TMP DP  RH WIND       PRES   REMARKS
Missoula       SUNNY     55  43  63 S5        30.28S

...Neighboring Cities...

CITY           SKY/WX    TMP DP  RH WIND       PRES   REMARKS
Seattle        MOSUNNY   69  52  54 N3        29.96S
Portland       MOSUNNY   68  56  65 W7        29.88F
Boise          SUNNY     67  41  38 E13       30.13R
Great Falls    SUNNY     57  43  59 SW5       30.32S



USA.gov is the U.S. government's official web portal to all federal, state and local government web resources and services.